EHI
3 4 4 4 4 4 5 5 4 3 3 3 3 4 4 4 3 3 3 2 2 2 1 2 3 3 2 2 1 0 0 0 0 2 4 5 5 6 6 4 3 3 3
3 4 5 6 6 6 6 5 4 3 3 3 3 3 4 3 3 3 3 2 1 1 1 1 1 1 1 1 0 0 1 1 1 2 3 3 3 4 4 4 3 3 3
3 4 6 6 7 8 7 5 4 3 3 4 4 3 3 3 2 3 3 2 1 0 0 0 0 0 0 0 0 1 2 3 2 2 2 1 1 2 3 3 3 3 3
3 4 6 6 7 7 7 6 4 4 4 4 5 4 4 3 3 3 3 3 1 0 0 0 0 0 0 0 0 1 2 3 2 1 1 0 0 1 1 2 3 3 3
3 4 5 6 6 5 5 5 4 5 4 4 4 5 4 4 3 3 3 3 2 1 1 1 1 0 0 1 1 2 2 2 1 0 0 0 0 0 0 1 1 2 2
3 3 4 6 6 4 4 4 4 5 5 4 3 4 4 3 3 3 3 3 3 3 2 2 1 1 1 2 2 2 1 1 0 0 0 0 0 0 0 0 1 1 1
3 3 4 6 6 4 3 4 4 4 4 3 3 3 3 3 3 3 3 3 3 3 3 3 2 1 2 3 3 1 0 0 0 0 0 0 1 1 1 1 2 2 1
3 3 4 5 6 4 3 3 4 3 3 3 3 3 3 3 3 3 3 3 3 3 3 3 3 3 3 3 2 1 0 0 0 0 0 1 2 2 2 3 4 3 2
3 3 4 5 6 5 4 3 3 3 3 3 3 3 3 3 3 3 3 3 3 3 3 3 3 3 3 3 3 1 0 0 0 0 0 1 3 4 4 4 5 5 4
3 3 4 5 6 6 4 3 3 3 3 3 3 3 3 2 2 3 3 3 3 3 3 3 3 3 3 3 3 2 1 1 0 0 1 2 4 5 6 6 6 6 4
3 3 4 5 6 5 4 3 3 2 2 2 2 2 1 1 1 1 3 3 3 3 3 3 3 3 2 3 4 4 2 0 0 0 1 3 4 5 6 6 5 4 3
2 3 3 4 4 4 3 3 3 2 1 1 1 1 0 0 0 1 2 2 2 2 2 2 2 1 1 1 3 3 1 0 0 0 1 3 5 5 5 4 3 2 1
1 2 3 3 2 2 2 2 2 1 0 0 0 0 0 0 0 0 1 1 1 1 1 1 1 0 0 0 1 1 0 0 0 0 1 3 7 8 5 3 3 2 1
0 1 3 3 2 2 2 2 2 1 0 0 0 0 0 0 0 0 0 0 0 0 0 0 0 0 0 0 0 0 0 0 0 0 1 3 7 8 6 5 5 3 2
0 1 2 3 3 4 4 3 3 2 0 0 0 0 0 0 0 0 0 0 0 0 0 0 0 0 0 0 1 0 0 0 0 0 1 3 6 7 7 7 7 6 4
0 0 2 3 5 6 5 4 3 1 0 0 0 0 0 0 0 0 0 0 0 0 0 0 0 0 0 0 0 0 0 1 1 0 0 2 5 6 7 8 9 9 7
0 1 3 6 6 6 5 4 2 1 0 0 0 0 0 0 0 0 0 0 0 0 0 0 0 0 0 0 0 0 0 1 1 0 0 1 3 6 7 8 10 10 10
0 2 5 8 8 6 5 3 1 0 0 0 0 0 0 0 0 0 0 0 1 1 0 0 0 0 0 0 0 0 0 0 1 1 1 0 2 5 7 7 8 9 10
0 3 7 9 9 8 6 3 1 1 0 0 0 0 0 0 0 0 0 1 2 2 1 0 1 1 1 1 1 1 0 0 1 2 2 1 2 4 5 6 6 7 7
1 3 7 8 9 9 7 4 3 2 1 1 1 1 0 0 1 1 1 1 3 3 2 2 2 2 2 2 2 1 0 1 2 3 3 3 3 3 4 4 4 4 5
3 4 5 7 9 8 6 4 3 3 3 2 2 2 1 1 2 2 2 3 3 4 3 3 3 3 3 3 3 1 0 1 2 2 2 2 3 3 4 3 3 3 4
5 5 5 6 7 7 5 4 3 3 3 3 3 3 3 3 3 4 4 5 5 5 5 5 4 3 3 3 3 1 1 1 1 1 1 1 1 2 3 3 3 3 3
7 6 6 6 6 6 5 4 3 3 3 3 3 3 3 3 4 5 6 7 7 6 6 6 5 4 4 3 3 3 3 3 2 1 1 0 0 2 3 3 3 3 3
9 8 7 7 7 7 5 4 3 3 3 3 3 3 3 3 4 6 7 7 7 7 6 6 6 6 5 4 4 3 3 4 3 3 2 1 1 1 2 3 3 3 3
10 9 8 8 8 7 4 3 3 3 3 3 3 3 3 3 4 6 6 6 6 6 6 6 6 6 6 6 5 4 4 4 4 4 3 2 1 1 1 3 3 3 2
11 10 9 9 9 6 4 3 3 3 3 3 3 3 3 3 4 6 6 6 6 6 6 6 6 6 6 6 6 6 5 5 5 5 4 3 2 1 1 2 3 2 1
Wind_Speed
2 2 1 4 5 6 6 6 8 10 11 12 12 13 13 14 16 17 16 17 18 18 19 19 19 19 19 19 18 18 17 16 15 15 15 15 15 15 14 15 14 11 15
1 1 2 4 5 6 7 8 9 10 12 12 13 13 13 15 16 17 17 18 18 18 19 18 18 18 18 18 17 17 16 15 14 14 14 13 14 13 13 14 13 10 14
1 1 2 5 6 7 9 10 11 12 12 12 13 13 14 16 16 17 17 18 18 18 18 18 18 18 18 17 17 16 15 14 14 13 12 8 9 12 12 13 13 14 14
2 1 2 6 6 8 9 11 12 12 12 13 13 14 15 16 16 17 17 17 17 17 17 17 17 18 17 17 16 15 14 14 13 13 7 6 6 11 11 11 12 13 13
2 2 2 7 7 8 9 10 12 12 12 13 13 13 15 16 16 17 17 16 16 16 17 16 16 16 16 15 15 14 14 13 13 10 6 6 5 10 11 11 12 12 12
2 2 2 7 7 8 8 9 11 11 11 12 12 13 14 15 16 16 16 16 15 15 16 16 15 15 15 14 14 13 13 12 11 7 6 6 5 10 11 11 11 11 11
2 2 2 6 7 8 8 9 10 10 10 11 11 13 13 14 15 15 15 15 15 15 15 14 14 14 13 12 12 12 12 12 8 6 5 5 5 9 10 10 10 10 10
3 2 2 5 7 7 7 8 8 9 9 10 10 12 12 13 13 13 13 13 14 14 13 13 12 12 11 10 10 10 10 10 8 6 5 5 7 8 9 9 9 10 10
3 3 2 2 3 6 7 7 7 7 8 9 9 10 11 12 12 12 11 11 12 12 12 11 11 10 9 9 8 8 8 9 6 4 5 4 8 9 9 9 9 9 9
3 2 2 2 2 2 3 5 6 6 6 7 8 9 10 10 10 10 9 9 10 10 10 10 9 9 8 8 7 7 7 7 4 4 3 4 8 9 9 9 9 9 8
2 1 2 2 2 2 1 3 4 4 5 5 5 7 6 4 4 5 7 7 8 8 8 8 8 7 7 6 6 7 6 3 4 3 2 5 7 8 8 8 8 8 8
2 1 1 2 2 1 1 2 2 2 2 3 3 3 3 3 2 3 4 6 6 6 7 7 6 6 4 2 3 5 2 4 3 2 3 6 6 7 8 8 8 8 8
3 2 2 2 2 1 1 1 1 2 2 2 2 3 3 2 2 2 2 2 2 3 3 3 3 2 2 2 2 2 3 3 2 2 3 6 6 7 8 8 8 8 8
3 3 3 3 2 1 1 1 1 1 1 1 1 2 2 1 1 1 1 1 1 1 2 2 1 2 2 2 2 3 3 2 2 2 2 6 6 6 7 9 8 8 8
4 4 4 4 3 2 2 1 1 1 1 1 1 1 2 2 1 1 1 1 1 1 1 1 1 2 2 2 2 2 2 3 3 2 2 5 5 5 6 7 8 9 9
5 4 4 4 4 3 2 2 1 1 1 1 1 2 2 2 2 2 1 1 1 1 1 1 1 1 1 1 1 2 2 2 2 2 2 2 4 5 5 6 8 8 8
5 4 4 5 4 4 3 2 2 1 2 2 1 2 2 2 3 2 2 1 1 1 2 2 2 2 1 1 1 1 1 2 2 2 2 1 1 3 4 5 5 6 6
4 4 4 5 5 4 3 2 1 2 2 1 1 2 2 3 3 3 2 1 1 2 2 2 2 2 1 1 1 0 1 1 1 2 2 1 1 1 3 4 5 5 7
6 6 5 4 5 4 3 2 2 1 2 1 1 1 2 3 3 3 2 1 2 2 2 2 2 2 2 1 1 1 1 0 0 1 1 2 2 2 1 3 4 4 5
5 5 5 5 4 4 3 2 2 1 1 1 1 2 2 2 3 3 2 2 2 2 2 2 2 2 2 2 1 2 1 1 0 0 1 1 1 2 2 2 2 3 4
5 5 6 5 4 4 3 2 2 1 1 1 1 2 2 2 3 3 2 2 2 2 2 2 2 2 2 2 2 2 2 1 0 0 0 0 1 2 2 2 1 1 2
7 7 6 6 5 5 3 3 2 2 1 1 1 1 2 2 3 3 3 3 2 2 2 2 3 2 1 1 2 1 1 1 1 1 0 1 1 1 1 2 1 2 2
7 8 7 7 6 5 4 3 3 2 2 1 1 1 1 2 3 3 3 3 3 3 3 3 3 3 2 1 1 2 2 2 1 1 1 0 1 0 1 1 2 2 2
9 8 7 7 6 5 5 4 4 3 2 2 2 1 1 2 3 3 3 3 3 3 3 3 3 3 3 2 1 1 1 2 2 1 1 1 1 1 1 1 1 1 1
8 8 7 6 5 5 5 5 4 3 2 1 1 2 1 1 2 2 3 3 3 3 3 3 3 3 3 3 2 2 1 1 1 2 1 1 1 1 1 1 1 1 1
7 7 7 7 6 5 5 5 5 4 4 3 2 2 1 1 1 2 3 3 3 3 3 3 3 4 3 3 2 2 2 2 2 2 2 1 1 1 1 1 1 1 1
Wind_Direction
313 316 27 68 65 63 64 71 82 83 86 91 95 100 103 104 106 106 107 109 113 116 116 116 117 117 115 116 116 117 119 120 122 123 120 118 122 123 123 123 121 119 120
255 326 70 76 72 67 67 76 88 90 90 91 94 99 104 108 109 108 107 107 108 112 114 115 115 115 115 116 116 116 117 119 122 121 120 122 124 124 124 125 125 124 124
85 23 83 90 81 74 75 82 88 94 92 92 94 98 105 110 110 109 109 108 108 109 110 111 113 114 115 115 116 116 116 116 116 118 115 109 120 126 127 128 127 125 126
94 57 85 95 85 82 82 87 91 93 92 92 93 98 105 109 110 110 110 110 111 112 112 112 113 114 115 115 116 116 117 117 116 113 103 106 116 126 126 128 129 128 129
84 63 93 98 90 89 89 91 94 94 93 92 94 99 105 109 111 111 112 112 113 114 115 115 116 116 115 116 115 115 117 118 115 109 100 100 107 126 126 129 131 133 134
89 70 95 103 97 92 92 92 94 94 94 95 97 101 106 109 111 112 113 114 114 115 115 116 117 117 118 117 115 115 118 118 111 106 105 109 116 131 133 134 135 136 136
108 79 96 104 100 96 95 97 95 97 99 99 100 105 108 110 112 114 116 116 115 115 115 116 117 117 118 117 116 116 118 120 113 113 114 116 127 136 138 139 140 141 141
115 89 90 108 108 102 98 98 99 102 104 104 104 109 111 113 114 116 117 117 118 118 118 118 117 116 117 118 117 120 124 126 123 123 121 128 143 146 146 144 144 146 147
91 83 71 78 103 113 111 105 105 104 105 106 107 111 116 116 116 118 119 120 120 120 122 122 121 120 120 124 124 125 132 130 121 127 135 137 150 154 152 152 154 153 153
80 83 84 66 67 82 103 120 117 112 112 113 115 116 118 118 118 118 118 123 124 125 126 126 126 125 126 130 133 132 135 127 121 127 131 148 155 160 159 159 159 159 160
115 94 111 100 79 83 96 121 110 114 115 113 112 115 111 95 97 112 122 126 128 131 131 129 129 128 126 130 136 135 131 124 131 134 140 161 167 169 168 168 169 169 170
180 177 151 142 128 108 120 81 59 66 71 77 79 86 83 86 93 108 119 123 128 131 130 128 125 122 115 115 131 129 121 137 143 152 169 176 179 182 181 181 181 182 183
189 186 176 168 155 132 75 82 64 57 64 67 76 84 85 81 80 81 84 101 96 108 98 106 99 96 109 119 122 124 139 150 158 173 184 187 191 191 193 192 193 195 195
185 200 188 171 162 156 122 90 90 80 81 93 105 104 97 93 83 97 106 81 68 82 95 88 86 89 105 122 136 138 149 158 169 178 198 200 200 200 202 200 202 204 202
197 207 196 173 169 165 154 160 135 129 134 148 133 130 136 140 145 118 111 96 94 116 120 118 105 101 110 121 139 152 167 174 181 189 202 206 206 209 208 204 205 209 210
201 198 173 170 173 164 164 167 159 156 157 152 170 174 165 164 155 143 138 129 143 147 138 134 131 127 135 134 145 161 175 176 188 193 198 214 220 221 225 216 211 215 217
193 177 167 169 163 162 164 172 166 161 152 162 175 174 172 170 163 157 149 156 158 139 127 116 107 106 131 129 136 145 154 169 181 188 189 197 228 234 235 226 220 221 224
178 172 175 170 159 163 160 157 156 153 150 164 164 165 172 170 164 155 158 171 154 132 128 128 118 113 123 132 142 149 131 157 188 187 190 199 222 248 255 246 237 235 236
181 173 170 165 160 164 153 141 139 136 143 156 154 162 170 169 164 156 161 161 147 137 136 148 125 133 140 142 138 95 70 119 211 200 189 206 218 231 250 267 254 250 251
178 173 170 165 158 147 134 116 105 107 132 144 152 165 166 167 160 152 154 157 145 140 140 137 130 124 133 130 104 70 37 27 42 3 243 228 235 235 234 247 258 268 265
170 170 173 166 162 146 136 141 141 158 165 157 173 168 168 166 160 156 159 155 155 160 164 150 130 123 110 113 95 58 29 33 55 6 309 271 267 260 242 239 241 248 274
181 180 178 176 170 170 167 154 145 136 137 156 156 150 173 173 174 172 171 173 168 159 152 150 140 132 140 136 128 111 21 348 350 26 1 251 277 282 264 253 244 242 255
187 185 185 182 177 177 163 125 99 80 64 84 109 185 198 178 178 176 174 173 173 170 177 174 163 158 168 169 155 153 160 220 292 330 342 328 311 290 281 283 258 256 251
193 185 181 180 179 175 160 151 151 157 174 191 181 190 204 178 178 179 175 175 178 177 181 188 174 169 161 177 185 190 179 161 168 286 317 323 315 281 284 284 274 262 252
185 180 181 178 179 174 168 167 164 173 189 175 158 164 193 192 185 182 180 179 185 188 189 186 172 173 174 178 180 169 146 134 158 175 250 298 315 286 267 257 261 269 267
178 176 177 177 186 180 176 175 177 186 186 171 182 187 199 203 207 203 191 189 191 191 191 192 185 182 186 183 183 178 172 174 183 181 206 239 261 280 280 268 258 267 265